Dewpoint
-1 -9 -8 -10 -14 -15 -10 -8 -6 -2 5 7 8 7 7 7 7 7 5 4 3 1 1 -0 -1 -1 -2 -3 -3 -5 -7 -7 -6 -5 -5 -5 -4 -4 -4 -5 -4 -4 -3 -3 -3 -2 -2 -11 -12 -11 -10 -8 -8 -8
-6 -3 -7 -10 -10 -14 -15 -8 -8 -7 -8 -7 -3 2 6 6 6 6 3 2 1 0 0 -0 -1 -1 -2 -3 -3 -3 -7 -5 -5 -4 -4 -4 -3 -5 -6 -7 -10 -5 -5 -5 -5 -5 -11 -10 -10 -10 -9 -9 -9 -9
-2 -9 -10 -9 -11 -9 -13 -12 -8 -7 -6 -6 -6 -5 -6 3 5 5 3 3 1 -1 -2 -2 -2 -2 -2 -2 -3 -3 -4 -6 -5 -5 -5 -5 -5 -7 -6 -7 -8 -10 -9 -8 -10 -13 -9 -9 -9 -9 -10 -10 -10 -10
-3 -3 -6 -14 -13 -11 -9 -8 -11 -9 -7 -5 -6 -3 -1 4 3 4 3 2 0 -1 -2 -4 -3 -3 -3 -4 -3 -2 -4 -5 -4 -5 -6 -5 -6 -7 -7 -9 -8 -9 -9 -9 -9 -10 -9 -9 -9 -10 -10 -10 -10 -11
-3 -3 -5 -14 -20 -16 -12 -10 -9 -8 -6 -5 -4 -0 3 2 2 1 0 -0 -1 -1 -5 -9 -8 -9 -11 -13 -13 -7 -4 -5 -5 -6 -5 -5 -6 -7 -8 -8 -7 -9 -8 -7 -8 -8 -8 -8 -10 -10 -10 -10 -11 -11
-2 -3 -6 -13 -18 -21 -17 -13 -9 -6 -5 -0 4 3 2 2 1 -0 -2 -2 -2 -5 -4 -6 -9 -9 -10 -10 -10 -7 -5 -6 -6 -7 -6 -7 -7 -7 -7 -8 -8 -8 -8 -8 -9 -9 -9 -10 -10 -10 -11 -11 -11 -11
-2 -4 -7 -10 -11 -16 -15 -10 -6 -4 3 3 2 1 1 -0 -1 -2 -4 -5 -3 -10 -21 -9 -8 -8 -9 -9 -8 -6 -6 -7 -7 -7 -7 -8 -8 -7 -7 -6 -7 -8 -8 -9 -9 -10 -10 -10 -10 -11 -11 -11 -12 -12
-3 -5 -5 -2 -3 -6 -7 -6 -1 3 3 2 0 -0 -1 -2 -2 -7 -9 -3 -4 -13 -15 -8 -11 -9 -9 -7 -7 -9 -8 -9 -9 -8 -7 -7 -7 -6 -7 -7 -8 -9 -9 -9 -10 -10 -10 -10 -11 -11 -11 -11 -12 -12
-5 -4 1 3 3 2 2 2 2 2 2 -0 -1 -1 -2 -5 -8 -9 -8 -7 -15 -12 -14 -12 -8 -8 -9 -7 -6 -6 -7 -7 -6 -5 -6 -6 -6 -6 -8 -8 -9 -9 -10 -10 -10 -10 -10 -11 -11 -11 -11 -11 -11 -11
-5 1 3 3 3 2 2 3 2 1 -0 -0 -1 -2 -5 -5 -9 -12 -13 -14 -15 -14 -12 -9 -9 -8 -8 -7 -7 -6 -6 -6 -9 -7 -6 -5 -5 -7 -8 -9 -9 -10 -10 -10 -10 -10 -10 -11 -10 -11 -11 -11 -11 -12
2 1 3 3 2 3 2 2 2 0 -1 -1 -4 -5 -6 -8 -13 -13 -14 -14 -11 -12 -10 -8 -8 -8 -7 -8 -7 -7 -10 -10 -9 -7 -6 -6 -6 -8 -9 -9 -10 -10 -10 -10 -10 -10 -10 -10 -10 -11 -11 -11 -11 -11
1 1 2 3 2 2 2 1 1 -0 -2 -3 -5 -8 -9 -8 -11 -13 -12 -11 -11 -11 -8 -7 -7 -8 -7 -7 -8 -8 -10 -11 -10 -7 -7 -7 -8 -9 -9 -10 -10 -10 -10 -10 -10 -10 -10 -10 -10 -10 -11 -11 -11 -11
3 2 1 0 -1 -1 -2 -1 -2 -2 -4 -5 -5 -7 -11 -11 -12 -17 -17 -14 -14 -10 -7 -8 -9 -8 -8 -8 -9 -10 -10 -9 -9 -8 -7 -8 -9 -9 -10 -10 -10 -10 -10 -10 -10 -10 -10 -10 -10 -10 -10 -10 -11 -11
0 -1 -2 -2 -1 -2 -2 -4 -5 -5 -5 -9 -12 -9 -9 -11 -16 -15 -14 -13 -8 -7 -7 -10 -9 -9 -9 -10 -11 -10 -11 -9 -10 -9 -9 -11 -10 -10 -10 -10 -10 -10 -10 -11 -13 -12 -11 -11 -10 -10 -10 -10 -10 -11
-2 -3 -4 -4 -4 -3 -5 -8 -7 -4 -9 -12 -15 -10 -12 -9 -9 -8 -8 -8 -8 -9 -11 -11 -10 -10 -11 -12 -11 -10 -10 -10 -10 -10 -10 -10 -10 -10 -10 -10 -10 -10 -11 -14 -14 -14 -14 -13 -11 -10 -10 -10 -10 -11
-3 -3 -3 -3 -4 -8 -10 -10 -9 -10 -19 -14 -10 -10 -8 -9 -8 -8 -9 -9 -10 -11 -12 -12 -12 -13 -13 -14 -11 -11 -11 -11 -11 -11 -10 -10 -11 -11 -11 -11 -11 -11 -12 -14 -14 -14 -14 -14 -14 -12 -10 -10 -10 -11
-5 -6 -6 -8 -9 -10 -11 -15 -24 -17 -11 -10 -9 -8 -8 -9 -8 -9 -10 -10 -11 -11 -12 -12 -13 -13 -14 -13 -12 -14 -13 -14 -11 -12 -12 -13 -12 -12 -11 -11 -11 -11 -13 -14 -13 -14 -14 -14 -14 -14 -14 -12 -10 -11
-7 -9 -10 -13 -14 -15 -25 -23 -19 -12 -9 -9 -9 -9 -8 -8 -9 -10 -10 -11 -12 -12 -12 -13 -12 -14 -13 -13 -13 -14 -11 -11 -12 -13 -13 -13 -12 -11 -11 -11 -11 -11 -13 -13 -13 -13 -14 -14 -14 -14 -14 -14 -14 -12
-11 -12 -13 -13 -18 -23 -21 -18 -15 -10 -9 -9 -9 -9 -9 -9 -9 -10 -11 -12 -12 -12 -12 -11 -16 -15 -14 -13 -11 -11 -12 -12 -13 -13 -13 -13 -12 -12 -12 -12 -12 -12 -13 -13 -13 -13 -13 -14 -13 -14 -14 -14 -14 -14
-13 -14 -15 -18 -25 -23 -18 -15 -13 -12 -11 -10 -9 -10 -10 -10 -9 -9 -9 -10 -11 -11 -12 -15 -14 -12 -11 -12 -12 -13 -13 -13 -13 -13 -13 -13 -13 -13 -12 -12 -12 -12 -13 -13 -13 -13 -13 -13 -13 -13 -13 -13 -13 -14
-12 -16 -18 -24 -23 -21 -15 -13 -12 -11 -11 -11 -11 -11 -10 -10 -10 -11 -11 -11 -11 -11 -12 -12 -12 -12 -13 -13 -13 -13 -13 -13 -13 -13 -13 -13 -13 -13 -13 -13 -13 -12 -12 -13 -13 -13 -13 -13 -13 -13 -13 -13 -13 -13
-17 -20 -23 -22 -19 -16 -14 -13 -12 -12 -12 -12 -12 -12 -11 -12 -12 -12 -12 -12 -12 -13 -12 -12 -13 -13 -13 -13 -13 -13 -13 -13 -13 -13 -13 -13 -13 -13 -13 -13 -13 -13 -13 -13 -13 -13 -13 -13 -13 -13 -13 -13 -13 -13
-21 -23 -22 -20 -18 -17 -15 -13 -13 -13 -13 -13 -12 -13 -14 -13 -13 -13 -13 -13 -13 -13 -13 -13 -13 -13 -13 -13 -13 -13 -13 -13 -13 -13 -13 -13 -13 -13 -13 -13 -13 -13 -13 -13 -13 -13 -13 -13 -13 -13 -13 -13 -13 -13
-23 -21 -19 -18 -16 -14 -14 -14 -13 -13 -14 -15 -18 -18 -17 -14 -14 -13 -19 -13 -14 -14 -14 -14 -13 -13 -13 -13 -13 -13 -13 -13 -13 -13 -13 -13 -13 -13 -13 -13 -13 -13 -14 -15 -15 -15 -14 -14 -13 -13 -13 -13 -13 -13
-21 -18 -18 -16 -16 -16 -17 -17 -16 -16 -19 -23 -20 -18 -16 -15 -21 -21 -18 -14 -14 -14 -14 -14 -14 -14 -14 -14 -14 -14 -13 -13 -13 -13 -13 -13 -13 -13 -13 -13 -14 -15 -16 -16 -16 -16 -15 -15 -14 -13 -13 -13 -13 -13
-16 -16 -17 -16 -16 -17 -18 -18 -19 -20 -22 -20 -20 -17 -16 -17 -19 -18 -16 -14 -14 -14 -14 -14 -14 -14 -14 -14 -14 -14 -14 -14 -14 -14 -14 -13 -13 -14 -15 -16 -16 -17 -17 -17 -17 -17 -17 -16 -16 -15 -14 -14 -14 -14
-17 -15 -15 -15 -16 -16 -16 -16 -16 -16 -20 -19 -20 -20 -22 -18 -18 -17 -15 -15 -15 -15 -14 -14 -14 -14 -14 -14 -14 -14 -14 -14 -14 -14 -14 -14 -14 -15 -16 -17 -18 -18 -18 -18 -18 -18 -18 -18 -18 -18 -18 -17 -16 -15
-15 -15 -17 -16 -16 -16 -17 -17 -20 -20 -17 -15 -15 -19 -18 -18 -17 -15 -16 -16 -15 -15 -14 -14 -14 -14 -14 -14 -14 -14 -14 -14 -14 -14 -14 -14 -14 -16 -17 -18 -18 -18 -19 -19 -19 -19 -19 -19 -19 -19 -19 -19 -19 -18
-15 -15 -16 -15 -14 -14 -15 -16 -15 -15 -15 -15 -16 -18 -15 -15 -15 -16 -16 -16 -15 -15 -15 -15 -14 -14 -14 -14 -14 -14 -14 -14 -14 -14 -14 -14 -16 -17 -17 -18 -18 -19 -20 -21 -21 -22 -22 -22 -22 -23 -23 -23 -23 -22
-15 -15 -15 -15 -16 -18 -15 -15 -15 -15 -14 -14 -15 -15 -15 -15 -15 -15 -15 -16 -16 -15 -15 -15 -14 -14 -14 -14 -14 -14 -14 -14 -14 -14 -14 -14 -16 -18 -19 -19 -20 -21 -22 -24 -25 -25 -25 -24 -24 -24 -24 -24 -24 -24
-15 -15 -15 -15 -16 -16 -15 -15 -15 -15 -14 -14 -14 -15 -15 -15 -15 -16 -16 -15 -15 -15 -15 -15 -15 -15 -15 -15 -15 -15 -14 -14 -14 -14 -14 -14 -14 -14 -15 -15 -16 -17 -17 -18 -19 -20 -21 -22 -23 -23 -24 -24 -24 -24
-15 -15 -15 -18 -16 -16 -15 -15 -15 -15 -15 -16 -16 -16 -16 -16 -16 -16 -16 -16 -15 -15 -15 -15 -15 -15 -15 -15 -15 -15 -15 -15 -15 -15 -14 -14 -14 -14 -14 -14 -14 -14 -15 -15 -16 -16 -16 -17 -18 -19 -21 -23 -24 -25
-16 -16 -16 -16 -16 -16 -16 -16 -16 -16 -16 -16 -16 -16 -16 -16 -16 -16 -16 -16 -16 -15 -15 -15 -15 -15 -15 -15 -15 -15 -15 -15 -15 -15 -15 -15 -15 -14 -14 -14 -14 -14 -14 -15 -15 -15 -15 -15 -16 -16 -17 -18 -21 -23
Wind_Speed
35 32 30 30 30 28 30 30 29 27 27 28 26 25 26 32 36 31 30 27 26 12 10 16 19 14 11 9 4 5 1 3 1 3 2 1 2 1 2 2 4 5 5 3 2 3 6 11 4 2 3 9 17 19
33 38 37 32 30 28 27 27 26 23 22 21 22 26 26 25 37 35 27 23 22 10 3 14 18 17 17 14 7 9 3 3 5 2 2 1 3 1 1 3 1 2 3 2 6 2 2 10 6 2 11 23 24 30
22 26 31 35 34 33 28 26 25 24 23 23 23 23 24 22 36 33 27 21 17 13 5 9 11 15 15 14 13 8 6 6 6 5 4 1 3 3 3 4 2 1 1 1 3 1 10 13 11 12 27 25 26 24
20 20 24 29 33 32 32 29 25 24 21 20 20 21 18 25 33 27 21 15 18 6 3 2 8 10 11 12 15 16 12 11 7 7 3 1 1 3 2 1 2 1 2 1 4 5 16 9 13 31 31 27 29 35
21 22 26 29 29 29 29 28 27 26 26 24 22 18 22 30 25 21 13 14 18 6 5 4 8 7 7 6 8 12 14 11 8 4 2 2 1 2 0 0 3 1 1 2 3 4 6 20 29 26 25 33 34 34
21 24 28 28 28 29 28 27 26 26 26 20 23 22 26 24 19 17 6 14 19 11 5 2 3 4 8 5 7 11 13 10 6 5 4 3 3 3 2 3 3 4 1 4 6 17 19 23 21 23 32 33 33 32
24 27 28 28 29 27 27 26 23 20 20 20 23 31 27 21 21 11 7 7 22 13 4 4 3 4 6 8 7 7 8 5 4 5 3 3 3 4 1 2 5 2 7 11 10 14 16 14 25 30 31 32 32 32
27 29 28 24 26 27 26 22 20 27 27 35 39 34 31 25 21 9 10 17 21 8 4 3 2 5 10 5 4 5 6 5 5 3 3 3 5 2 1 3 1 7 11 3 9 15 16 21 25 29 30 31 32 34
28 27 23 22 20 18 18 24 31 38 45 46 44 37 29 20 9 14 17 17 14 4 4 3 4 3 8 5 4 4 4 1 3 3 4 7 2 3 2 1 4 7 8 13 17 16 19 23 27 30 31 32 32 34
26 20 19 20 21 26 25 36 41 55 54 47 40 12 6 10 23 17 5 6 6 4 3 3 5 2 5 4 2 3 2 1 1 3 6 2 2 8 3 2 4 6 8 12 18 23 25 27 28 31 30 30 30 32
20 17 18 20 25 32 43 51 54 57 53 34 8 7 26 22 7 3 2 3 2 2 2 3 2 3 4 3 3 2 2 0 1 3 2 2 2 4 1 3 4 6 8 10 12 14 16 19 23 26 29 29 30 31
16 19 18 27 37 50 53 60 57 45 29 18 21 31 13 5 4 4 1 2 2 3 4 4 4 3 4 3 4 2 3 2 3 2 1 1 2 2 2 3 5 7 9 11 13 15 17 18 20 22 24 27 29 29
26 39 50 61 65 67 65 59 36 36 39 31 8 7 3 2 4 5 5 3 1 6 7 6 3 3 3 3 5 3 2 3 1 1 1 1 4 2 4 6 6 9 11 12 13 14 16 17 17 20 23 24 26 28
56 62 64 65 62 57 49 43 42 27 12 7 5 5 2 1 2 3 3 4 3 5 11 10 6 2 3 3 2 3 2 1 2 1 3 1 2 4 6 8 10 10 11 13 14 15 16 17 18 18 19 22 25 27
60 57 50 46 45 40 33 26 17 16 9 6 4 3 1 4 4 7 9 7 9 12 9 8 6 2 4 3 2 2 2 2 3 2 1 1 4 7 8 8 10 11 12 14 15 16 16 17 17 17 18 19 21 23
42 37 31 30 30 30 25 20 17 15 7 5 5 5 8 10 5 7 13 12 9 9 6 3 3 3 2 2 2 2 4 3 2 1 2 5 8 8 8 8 9 10 12 13 13 15 15 16 16 16 16 17 19 20
35 34 32 32 28 26 22 18 10 8 6 4 5 11 9 14 10 8 8 6 7 2 2 2 3 2 3 3 1 2 3 2 2 2 4 9 10 10 8 8 9 9 10 11 11 12 13 14 13 13 16 18 18 18
37 35 31 28 26 23 14 10 7 7 7 8 7 9 12 11 12 9 8 5 2 3 2 2 5 3 3 3 2 2 2 1 4 5 10 12 11 8 6 7 7 8 9 9 10 11 12 13 14 16 16 18 17 18
38 33 28 24 16 5 5 7 7 7 7 8 10 13 13 13 14 11 9 8 8 8 6 3 4 2 1 2 1 3 3 8 11 14 13 9 5 4 6 6 6 7 7 8 8 8 11 12 13 15 16 17 18 19
33 28 21 16 5 5 6 6 7 7 4 4 8 8 7 7 8 7 5 5 4 3 4 3 2 2 3 3 1 5 8 9 10 8 2 5 5 6 6 5 5 5 6 7 7 7 8 9 11 13 15 16 16 18
27 21 15 6 15 11 7 6 7 7 7 6 9 5 5 7 4 3 4 4 3 3 3 3 5 4 0 2 3 5 6 6 5 5 7 8 8 6 5 4 4 4 5 6 8 9 9 11 12 13 13 13 14 14
20 14 9 9 7 7 8 9 7 7 5 6 4 4 4 3 3 3 2 3 3 3 3 4 1 1 1 3 5 5 5 4 3 4 5 5 6 4 4 4 3 4 5 7 9 10 10 10 11 11 11 11 11 12
15 9 7 6 5 5 5 4 3 4 4 3 3 3 3 2 2 1 2 2 2 2 2 0 2 2 2 2 5 4 4 3 3 3 3 2 2 2 3 5 5 4 5 7 8 9 10 10 9 10 11 10 9 9
7 4 5 5 6 4 4 4 4 4 4 4 3 2 1 1 1 2 1 1 2 2 0 1 2 2 3 3 4 4 4 3 3 3 3 3 3 3 3 3 5 5 6 6 8 8 9 9 9 9 10 10 10 10
4 7 4 7 5 4 5 4 4 4 2 2 3 2 1 1 2 2 1 1 2 3 2 2 2 2 2 2 3 3 4 4 3 4 4 2 1 1 2 3 4 5 6 6 7 8 9 9 9 10 10 11 11 12
6 7 4 2 2 3 2 3 1 3 3 2 1 2 1 3 3 2 2 2 2 2 3 3 3 3 3 3 3 4 4 3 2 3 3 2 3 3 3 3 3 5 5 7 8 8 9 10 10 10 10 11 11 11
4 2 4 4 5 7 7 6 5 3 3 3 3 2 3 2 3 2 3 2 2 1 2 3 4 4 3 2 2 2 3 1 1 3 3 4 4 3 3 3 4 5 5 7 8 8 9 9 10 10 11 11 11 11
5 3 4 4 5 5 6 4 2 3 3 5 7 2 6 7 4 4 3 1 2 1 1 2 2 3 3 3 2 1 1 1 2 2 3 3 4 3 3 4 4 5 5 6 6 8 8 9 10 11 11 11 12 12
4 7 4 5 5 5 4 2 2 3 4 6 3 3 2 3 3 3 2 1 2 3 3 2 2 2 2 2 2 3 2 2 2 0 1 2 3 3 4 4 4 5 6 6 6 7 8 8 9 10 11 11 12 12
3 3 4 3 3 1 2 3 5 7 5 4 3 2 2 2 3 4 5 4 4 4 4 3 2 2 2 1 1 2 3 3 2 2 1 3 4 4 4 4 5 5 5 5 6 6 7 8 9 10 10 11 11 11
5 3 3 4 4 3 6 7 6 4 3 2 2 2 2 2 4 6 6 5 5 4 4 3 3 3 3 2 3 3 3 3 3 3 3 3 4 4 4 5 5 5 5 5 5 5 6 7 7 8 8 9 10 11
3 3 4 3 3 6 6 3 2 1 0 1 1 2 1 2 2 2 2 4 5 4 4 3 3 4 5 5 6 4 3 4 4 4 4 3 3 3 4 5 5 6 6 7 7 7 7 7 8 9 9 10 11 12
4 5 5 5 4 3 2 2 1 1 1 1 1 1 3 2 2 2 2 3 5 5 4 4 3 4 5 6 8 6 6 6 4 4 2 0 2 1 4 6 6 7 7 8 9 9 10 10 11 11 12 12 13 13
Wind_Direction
243 250 249 253 253 251 254 257 258 259 257 255 254 260 270 275 270 268 252 237 223 200 212 222 222 184 171 186 176 151 345 243 113 176 213 281 271 299 297 231 188 174 165 205 179 228 268 13 10 58 312 335 332 325
241 246 248 250 252 251 250 251 254 257 260 261 260 260 258 267 259 264 230 236 231 233 239 229 228 224 206 185 192 187 214 152 196 165 194 166 213 149 266 281 327 247 195 206 187 240 107 338 264 263 347 335 325 321
247 246 248 247 248 247 248 250 253 256 258 260 260 264 262 255 244 249 241 233 219 224 208 209 217 216 211 213 201 181 198 213 213 203 181 166 224 136 205 239 291 218 75 226 345 70 325 333 142 341 336 326 320 318
245 248 252 249 246 247 250 251 250 254 257 258 262 258 245 234 230 252 241 240 210 162 177 202 197 197 213 225 232 235 237 208 201 191 170 151 221 189 221 224 218 248 337 160 265 339 342 144 315 328 325 324 321 318
245 255 259 255 250 247 245 246 247 247 256 253 251 242 224 212 227 224 224 210 204 196 138 143 179 197 190 201 222 219 221 205 181 159 126 196 182 173 20 358 244 106 159 174 263 313 270 290 318 329 324 321 324 323
252 261 261 258 255 247 245 242 241 248 245 231 211 207 209 226 213 182 171 213 193 165 130 143 157 186 203 206 193 178 183 191 177 159 158 184 185 181 161 233 134 118 358 292 282 294 297 306 321 329 326 330 327 319
261 263 260 256 251 242 238 238 238 234 207 199 199 190 194 185 174 175 181 177 171 146 136 98 98 140 158 158 154 160 171 176 166 167 171 164 176 197 202 231 153 308 303 303 289 317 318 318 326 334 336 332 328 326
254 257 263 253 247 233 229 230 214 190 193 183 173 175 172 168 161 129 121 146 154 136 137 128 213 158 172 169 140 163 177 172 173 159 159 159 153 188 252 133 305 315 322 296 311 323 318 325 334 339 339 337 334 334
251 258 244 235 227 215 205 185 184 184 174 165 168 169 155 134 118 130 137 155 163 147 157 138 145 197 167 139 133 160 174 88 168 192 203 164 156 217 122 151 324 326 328 314 325 334 342 343 343 343 342 343 338 336
244 232 235 220 205 195 190 184 181 167 167 167 159 131 93 117 125 120 125 161 174 183 145 109 138 163 165 133 112 132 103 93 158 230 157 210 170 131 111 359 318 319 330 332 335 345 346 345 345 343 344 344 342 341
203 214 207 198 190 187 176 177 178 166 164 150 133 93 131 128 115 89 93 47 20 20 106 125 163 149 150 123 147 121 157 73 116 245 193 213 169 138 351 321 318 332 337 339 334 334 339 339 339 338 344 347 350 349
187 177 181 185 177 176 178 175 170 160 160 160 139 122 117 108 89 93 340 333 86 218 164 144 128 117 120 134 106 112 125 68 226 163 122 234 102 132 316 324 333 333 336 339 338 339 342 344 344 345 349 352 354 353
156 158 156 155 150 151 153 153 152 146 129 124 91 85 123 100 83 151 202 300 284 180 163 154 113 119 116 92 81 107 106 209 124 91 225 95 116 13 342 337 338 336 339 338 341 342 341 344 350 351 354 358 0 1
149 145 146 149 153 153 144 132 121 117 91 76 90 89 107 197 254 180 170 169 140 159 150 143 100 89 95 79 128 103 233 64 65 223 218 188 68 6 352 346 343 342 341 340 340 342 341 343 351 356 358 360 4 7
141 137 124 119 122 122 111 104 110 119 72 75 76 90 137 113 90 118 119 117 119 136 136 113 86 97 39 81 28 91 49 266 205 217 167 117 343 339 337 337 341 343 346 349 345 344 342 344 350 360 0 4 6 10
123 122 123 128 124 114 114 117 111 86 68 72 72 86 124 103 93 105 117 110 118 125 112 96 100 65 33 117 84 202 121 222 225 210 339 321 326 331 327 327 337 342 344 346 345 347 348 350 355 2 2 11 12 14
128 120 127 125 127 124 122 114 82 65 76 71 66 95 107 111 114 108 114 114 131 108 111 120 79 184 126 54 9 190 183 210 87 355 334 323 322 323 316 325 335 337 339 344 346 349 353 0 2 5 13 22 18 23
117 124 132 131 134 133 90 68 81 75 70 67 83 84 89 101 112 105 102 113 112 113 122 145 128 81 142 147 276 238 145 252 323 317 324 315 313 306 311 328 334 335 342 344 346 350 359 4 14 20 18 24 23 27
128 135 135 135 136 106 73 56 53 84 71 84 92 94 97 94 97 103 100 93 92 95 110 95 74 126 207 193 104 146 305 310 308 310 313 307 300 313 332 336 332 334 344 349 352 356 6 7 15 17 16 20 23 27
133 136 142 145 111 74 76 63 68 89 95 81 100 90 90 104 114 97 95 88 75 59 60 57 125 119 104 124 288 289 296 303 310 324 342 356 346 335 330 321 326 340 353 351 353 358 10 11 19 21 19 18 22 27
138 130 132 101 73 67 79 72 69 84 105 98 112 98 96 116 103 83 63 59 60 53 75 92 118 123 59 320 325 324 323 327 329 330 342 338 336 327 329 327 323 336 350 355 359 6 5 8 14 13 12 18 24 26
128 132 108 61 67 67 64 48 89 102 91 109 100 83 91 73 62 49 30 57 72 85 104 134 125 30 37 10 360 351 346 333 320 317 304 290 289 316 340 345 334 336 351 3 1 2 4 3 9 8 9 15 20 22
127 114 65 58 80 65 89 72 84 71 91 97 112 89 56 77 63 91 79 88 113 132 145 281 321 318 283 318 346 341 340 336 310 298 298 329 1 353 352 359 1 2 3 3 6 8 9 9 11 14 14 17 24 28
108 68 55 56 56 95 101 65 70 85 93 53 59 49 2 74 40 80 114 116 161 169 196 324 320 315 295 288 313 323 323 313 313 324 325 309 312 328 338 355 15 23 18 13 14 15 18 21 26 29 29 34 40 47
83 25 54 52 63 91 56 33 32 66 76 8 80 0 29 43 62 43 226 180 215 223 256 297 304 304 289 273 284 305 323 328 332 340 345 341 330 357 30 34 25 23 20 18 21 27 30 32 33 36 38 44 48 48
73 21 46 68 57 95 168 96 109 156 128 67 73 102 78 67 62 247 229 189 214 228 239 248 262 261 268 292 313 311 313 313 336 359 25 59 75 75 60 54 38 27 30 31 33 33 34 35 37 38 41 43 45 45
87 54 71 79 91 111 98 86 101 96 104 155 181 115 78 94 244 223 175 187 199 219 229 245 263 264 256 270 316 346 358 353 71 90 78 72 66 56 51 50 46 43 41 37 38 40 40 40 43 44 43 42 42 41
82 96 132 122 92 66 113 92 110 163 177 149 147 169 164 182 209 165 170 182 218 229 277 291 274 261 254 253 237 224 8 93 98 73 55 51 53 48 51 51 51 50 49 46 48 47 45 45 45 46 45 44 42 40
85 116 107 69 76 67 64 85 119 131 142 169 161 192 154 153 163 172 207 269 267 245 244 278 269 266 261 245 233 219 222 209 223 331 134 89 65 63 63 61 57 51 46 44 45 48 48 47 44 40 37 35 33 32
105 104 93 83 82 94 88 114 126 142 149 160 144 131 146 206 237 256 267 269 249 238 236 250 272 244 254 270 263 243 196 175 186 173 145 118 92 77 70 65 60 53 49 47 41 35 30 28 26 23 23 23 20 20
114 92 85 69 84 98 133 136 138 146 175 205 235 252 249 283 277 266 254 241 229 225 227 232 245 222 214 198 166 136 146 144 140 137 131 113 101 98 85 68 55 44 36 31 25 17 14 12 9 9 9 9 9 10
87 84 111 107 118 138 135 144 134 120 31 227 266 226 240 232 249 256 247 217 216 218 217 227 229 211 204 190 175 164 156 148 132 127 118 110 91 73 64 50 38 30 24 17 11 6 2 357 356 356 355 355 355 355
101 90 96 106 117 128 123 123 78 7 248 233 243 235 224 255 252 251 254 224 217 218 220 227 229 217 209 204 198 191 186 184 181 175 157 255 277 278 8 6 360 355 353 352 351 350 348 346 345 345 344 343 342 341
Height
1475 1480 1482 1485 1487 1489 1493 1495 1496 1499 1501 1503 1505 1507 1508 1510 1510 1513 1514 1517 1521 1520 1522 1526 1528 1532 1536 1539 1541 1545 1549 1548 1546 1547 1546 1542 1546 1546 1546 1540 1540 1542 1549 1550 1550 1549 1543 1536 1533 1538 1536 1531 1530 1528
1464 1469 1472 1476 1480 1482 1483 1488 1491 1492 1494 1496 1498 1500 1501 1502 1504 1507 1510 1513 1517 1521 1523 1525 1527 1529 1529 1529 1534 1539 1541 1542 1544 1542 1542 1542 1542 1550 1549 1544 1542 1541 1539 1542 1542 1536 1536 1535 1534 1536 1534 1531 1526 1522
1456 1459 1463 1467 1471 1473 1476 1479 1483 1485 1489 1490 1491 1493 1495 1497 1498 1501 1507 1511 1514 1520 1517 1523 1523 1526 1529 1531 1532 1533 1535 1538 1540 1541 1542 1541 1541 1543 1547 1545 1542 1538 1538 1539 1537 1536 1533 1532 1532 1532 1530 1527 1522 1518
1449 1453 1455 1456 1460 1463 1468 1472 1474 1479 1482 1483 1487 1489 1488 1491 1494 1501 1503 1510 1515 1516 1519 1520 1520 1522 1524 1527 1529 1534 1535 1534 1537 1539 1539 1540 1540 1540 1543 1540 1541 1539 1540 1539 1538 1534 1532 1532 1530 1528 1523 1520 1516 1511
1444 1445 1447 1449 1450 1454 1458 1464 1468 1470 1478 1477 1479 1483 1488 1485 1491 1500 1504 1502 1509 1515 1517 1520 1521 1526 1523 1526 1527 1529 1531 1532 1534 1535 1536 1539 1539 1540 1542 1541 1541 1538 1540 1540 1538 1538 1539 1532 1528 1524 1519 1514 1509 1502
1436 1437 1437 1437 1440 1444 1450 1455 1458 1464 1471 1470 1474 1479 1486 1487 1492 1498 1502 1506 1507 1510 1513 1519 1521 1525 1524 1525 1528 1526 1529 1530 1531 1531 1531 1534 1534 1538 1541 1541 1538 1537 1539 1539 1539 1537 1535 1530 1525 1521 1515 1508 1503 1498
1428 1426 1426 1427 1434 1435 1442 1447 1449 1457 1465 1470 1472 1477 1482 1489 1492 1498 1497 1497 1502 1508 1513 1518 1519 1524 1527 1528 1528 1528 1530 1530 1530 1531 1531 1531 1534 1536 1537 1536 1535 1536 1538 1537 1536 1535 1528 1524 1520 1515 1509 1504 1498 1491
1417 1417 1416 1421 1426 1432 1432 1435 1443 1454 1461 1465 1472 1475 1483 1490 1494 1501 1499 1499 1504 1508 1509 1515 1518 1521 1522 1525 1527 1529 1529 1529 1529 1529 1532 1530 1533 1535 1535 1532 1534 1535 1535 1534 1534 1532 1528 1522 1516 1510 1506 1499 1492 1484
1405 1408 1413 1416 1420 1420 1428 1433 1438 1447 1454 1463 1468 1477 1484 1492 1498 1500 1502 1504 1507 1512 1508 1512 1517 1520 1520 1519 1523 1528 1528 1528 1529 1529 1529 1531 1530 1530 1529 1531 1532 1533 1533 1531 1529 1526 1521 1517 1511 1506 1501 1494 1487 1479
1401 1401 1407 1410 1413 1415 1421 1426 1435 1441 1449 1462 1473 1479 1490 1496 1500 1505 1508 1507 1507 1504 1505 1510 1515 1519 1520 1518 1523 1527 1524 1526 1534 1528 1527 1526 1524 1527 1529 1530 1531 1531 1529 1527 1524 1518 1515 1511 1507 1503 1497 1491 1485 1477
1393 1394 1405 1405 1407 1412 1412 1424 1431 1440 1453 1464 1474 1479 1492 1500 1502 1503 1507 1507 1506 1509 1506 1508 1513 1516 1517 1517 1521 1521 1525 1529 1534 1527 1525 1524 1523 1527 1529 1530 1530 1528 1526 1525 1523 1520 1517 1512 1507 1502 1495 1489 1481 1474
1386 1392 1399 1404 1402 1408 1417 1422 1433 1442 1453 1461 1471 1481 1495 1499 1501 1505 1511 1509 1507 1511 1509 1509 1511 1515 1515 1516 1516 1522 1527 1531 1535 1524 1525 1523 1526 1527 1528 1528 1527 1526 1524 1522 1520 1517 1514 1511 1506 1500 1494 1486 1479 1473
1387 1392 1401 1403 1406 1412 1419 1428 1437 1445 1453 1465 1473 1484 1494 1501 1504 1510 1517 1514 1514 1506 1506 1508 1512 1512 1514 1515 1518 1523 1527 1529 1523 1526 1522 1525 1527 1527 1527 1527 1525 1523 1521 1519 1517 1515 1512 1508 1504 1498 1492 1486 1479 1472
1393 1399 1403 1406 1412 1420 1428 1435 1443 1450 1457 1467 1476 1491 1495 1500 1502 1500 1501 1501 1503 1503 1505 1507 1509 1511 1514 1517 1520 1524 1524 1523 1529 1529 1525 1527 1527 1526 1526 1524 1523 1521 1519 1517 1514 1512 1510 1506 1502 1496 1491 1485 1479 1473
1399 1408 1415 1420 1424 1431 1437 1445 1451 1455 1461 1472 1480 1493 1496 1496 1497 1499 1500 1501 1503 1505 1506 1507 1510 1514 1517 1521 1521 1522 1524 1529 1525 1525 1526 1526 1525 1525 1524 1522 1521 1519 1517 1514 1512 1510 1507 1504 1499 1494 1490 1485 1480 1475
1414 1421 1428 1431 1436 1441 1446 1452 1455 1458 1470 1480 1488 1494 1496 1497 1500 1501 1501 1503 1505 1506 1507 1509 1512 1518 1523 1523 1522 1523 1526 1529 1526 1525 1525 1525 1524 1523 1522 1520 1519 1517 1515 1513 1511 1509 1506 1502 1497 1493 1490 1486 1481 1476
1423 1426 1435 1440 1445 1449 1455 1458 1460 1469 1479 1487 1492 1493 1495 1497 1500 1502 1504 1505 1507 1508 1510 1511 1516 1519 1522 1525 1525 1525 1527 1524 1523 1524 1524 1523 1522 1521 1520 1519 1517 1515 1514 1512 1510 1508 1505 1501 1497 1494 1490 1485 1482 1478
1429 1438 1445 1450 1454 1457 1458 1460 1467 1477 1487 1492 1494 1497 1498 1499 1503 1505 1507 1508 1509 1509 1510 1512 1514 1520 1524 1525 1526 1522 1522 1523 1523 1523 1522 1521 1520 1519 1518 1516 1515 1514 1513 1511 1509 1507 1504 1500 1497 1494 1491 1486 1483 1479
1439 1446 1451 1455 1457 1459 1462 1469 1474 1484 1494 1497 1499 1499 1501 1504 1507 1508 1509 1509 1509 1509 1511 1512 1516 1523 1521 1520 1520 1521 1522 1522 1521 1520 1520 1519 1518 1517 1515 1514 1514 1513 1512 1510 1509 1506 1503 1500 1498 1495 1492 1488 1485 1481
1446 1451 1456 1458 1459 1460 1468 1477 1481 1487 1496 1500 1501 1503 1505 1508 1510 1510 1511 1511 1511 1511 1512 1514 1518 1518 1519 1520 1521 1521 1521 1520 1519 1518 1517 1517 1516 1515 1514 1514 1513 1512 1511 1510 1508 1506 1504 1501 1499 1496 1493 1490 1487 1483
1453 1456 1460 1462 1461 1466 1474 1481 1486 1493 1498 1501 1504 1506 1508 1510 1511 1511 1511 1511 1512 1513 1516 1518 1519 1519 1520 1520 1520 1520 1519 1518 1517 1517 1517 1516 1516 1515 1514 1513 1512 1512 1511 1509 1507 1505 1503 1501 1499 1496 1494 1491 1488 1486
1458 1462 1464 1465 1468 1475 1482 1488 1491 1496 1500 1504 1506 1508 1509 1511 1511 1512 1513 1513 1515 1517 1518 1519 1519 1519 1519 1519 1519 1518 1518 1517 1517 1517 1517 1516 1515 1514 1513 1512 1512 1511 1510 1509 1507 1505 1503 1501 1499 1497 1495 1492 1490 1488
1464 1466 1467 1471 1475 1482 1494 1493 1494 1498 1502 1506 1507 1509 1511 1512 1513 1515 1515 1516 1516 1517 1517 1517 1518 1518 1518 1518 1518 1518 1518 1518 1517 1517 1516 1515 1514 1513 1513 1512 1511 1511 1510 1509 1507 1505 1503 1501 1499 1497 1495 1493 1491 1489
1468 1469 1473 1476 1481 1490 1493 1495 1497 1500 1504 1506 1508 1514 1513 1513 1514 1514 1515 1515 1515 1516 1517 1517 1517 1517 1518 1518 1518 1518 1518 1517 1516 1515 1514 1513 1513 1513 1512 1512 1512 1511 1510 1509 1507 1505 1504 1502 1500 1498 1496 1494 1492 1490
1472 1481 1482 1485 1488 1490 1494 1498 1501 1502 1511 1512 1514 1515 1514 1514 1516 1518 1517 1515 1515 1516 1516 1516 1517 1517 1517 1517 1518 1517 1517 1516 1515 1514 1513 1512 1512 1512 1512 1512 1512 1511 1510 1509 1508 1506 1504 1503 1501 1500 1498 1496 1494 1493
1480 1485 1485 1487 1491 1491 1498 1503 1505 1508 1509 1513 1514 1514 1514 1515 1520 1519 1514 1515 1515 1515 1516 1516 1517 1517 1517 1517 1516 1516 1515 1515 1514 1514 1513 1513 1513 1513 1513 1513 1513 1512 1511 1510 1508 1507 1506 1504 1503 1501 1500 1498 1496 1495
1485 1488 1489 1490 1492 1493 1498 1501 1504 1505 1510 1512 1512 1514 1517 1523 1522 1514 1514 1514 1514 1515 1515 1515 1516 1516 1515 1515 1515 1515 1514 1514 1514 1515 1514 1514 1514 1514 1514 1514 1513 1512 1512 1511 1510 1509 1508 1506 1505 1503 1501 1500 1498 1497
1486 1489 1490 1493 1493 1494 1497 1502 1504 1507 1506 1508 1511 1514 1515 1514 1514 1513 1513 1513 1513 1514 1514 1514 1514 1514 1514 1514 1514 1514 1514 1515 1515 1515 1515 1515 1515 1515 1514 1514 1513 1513 1512 1512 1511 1510 1509 1508 1506 1505 1504 1502 1501 1499
1489 1491 1492 1494 1495 1497 1500 1502 1504 1505 1507 1508 1509 1510 1509 1510 1511 1512 1512 1513 1513 1513 1513 1513 1513 1513 1513 1513 1514 1514 1514 1515 1516 1516 1516 1515 1515 1516 1515 1514 1514 1514 1513 1513 1512 1511 1510 1509 1508 1506 1505 1504 1502 1500
1492 1492 1493 1495 1497 1501 1503 1503 1504 1505 1507 1508 1508 1508 1509 1509 1510 1511 1511 1511 1511 1511 1512 1512 1512 1512 1513 1513 1513 1514 1514 1515 1515 1516 1516 1515 1515 1516 1515 1515 1515 1515 1514 1514 1513 1512 1511 1510 1509 1507 1506 1505 1503 1502
1492 1493 1495 1498 1500 1503 1503 1505 1506 1506 1507 1507 1507 1508 1509 1509 1509 1509 1509 1509 1509 1510 1511 1511 1512 1512 1513 1513 1514 1514 1514 1515 1515 1515 1516 1516 1516 1516 1516 1516 1516 1515 1515 1514 1514 1513 1512 1511 1510 1509 1508 1506 1505 1503
1494 1495 1496 1500 1503 1505 1505 1506 1506 1506 1506 1507 1507 1508 1508 1508 1509 1508 1508 1508 1508 1509 1510 1511 1511 1512 1512 1513 1513 1514 1515 1515 1516 1516 1517 1517 1518 1517 1517 1517 1516 1516 1515 1515 1514 1513 1512 1511 1510 1508 1507 1506 1504 1502
1496 1497 1497 1499 1502 1503 1505 1506 1506 1507 1507 1507 1508 1508 1508 1508 1508 1508 1507 1507 1508 1508 1509 1509 1510 1510 1511 1512 1513 1514 1515 1516 1516 1517 1517 1517 1518 1518 1517 1517 1516 1516 1515 1514 1513 1512 1511 1510 1508 1507 1505 1504 1502 1500